Weather reports worldwide

Advertisment
Mannheim, Germany (10729): temperature & dewpoint: 18.06.2018 16:00:00 - 24.06.2018 16:00:00 (CEST)Mannheim, Germany (10729): temperature 5cm & temperature -5cm: 18.06.2018 16:00:00 - 24.06.2018 16:00:00 (CEST)Mannheim, Germany (10729): temperature -20cm & temperature -100cm: 18.06.2018 16:00:00 - 24.06.2018 16:00:00 (CEST)Mannheim, Germany (10729): wind speed & gusts: 18.06.2018 16:00:00 - 24.06.2018 16:00:00 (CEST)Mannheim, Germany (10729): wind direction: 18.06.2018 16:00:00 - 24.06.2018 16:00:00 (CEST)Mannheim, Germany (10729): reduced air pressure: 18.06.2018 16:00:00 - 24.06.2018 16:00:00 (CEST)Mannheim, Germany (10729): visibility: 18.06.2018 16:00:00 - 24.06.2018 16:00:00 (CEST)Mannheim, Germany (10729): sunshine duration: 18.06.2018 16:00:00 - 24.06.2018 16:00:00 (CEST)Mannheim, Germany (10729): precipitation: 18.06.2018 16:00:00 - 24.06.2018 16:00:00 (CEST)
Date & Time tt [°C] td [°C] tt 5cm [°C] tt -5cm [°C] tt -20cm [°C] tt -100cm [°C] ff [km/h] ff [kn] fx [km/h] fx [kn] dd ppp [hPa] vv [km] sd [min] rr [mm]
24.06.2018 16:00:00 20,8 8,5 25,8 26,7 21,3 19,6 6 3 21 11 NW 1020,5 39 6 0,0
24.06.2018 15:00:00 20,3 7,7 26,2 27,0 20,9 19,6 9 5 20 11 N 1020,9 35 27 0,0
24.06.2018 14:00:00 20,8 8,0 26,5 26,3 20,6 19,7 10 5 20 11 WNW 1021,2 20 39 0,0
24.06.2018 13:00:00 20,0 8,2 26,8 24,6 20,3 19,7 8 4 18 10 W 1021,7 28 44 0,0
24.06.2018 12:00:00 18,6 7,2 22,9 22,7 20,1 19,7 9 5 17 9 NW 1022,2 51 10 0,0
24.06.2018 11:00:00 17,6 8,7 22,1 21,7 20,0 19,7 7 4 11 6 NW 1022,4 46 16 0,0
24.06.2018 10:00:00 17,2 9,6 22,2 20,3 19,9 19,7 5 3 11 6 S 1022,4 27 27 0,0
24.06.2018 09:00:00 15,5 9,3 19,5 19,1 20,0 19,7 3 2 8 4 S 1022,7 33 21 0,0
24.06.2018 08:00:00 15,0 9,6 17,0 17,8 20,1 19,7 3 1 5 3 N 1022,7 25 46 0,0
24.06.2018 07:00:00 12,2 9,5 13,8 16,9 20,3 19,7 3 2 7 4 ESE 1022,6 17 29 0,0
24.06.2018 06:00:00 9,4 8,2 8,2 16,6 20,5 19,7 2 1 8 4 N 1022,9 16 2 0,0
24.06.2018 05:00:00 8,8 7,6 6,4 17,2 20,7 19,7 4 2 5 3 NW 1022,9 19 0 0,0
24.06.2018 04:00:00 10,3 8,0 7,8 17,8 20,9 19,7 4 2 6 3 N 1023,1 27 0 0,0
24.06.2018 03:00:00 12,5 8,8 10,4 18,2 21,1 19,7 4 2 6 3 NNW 1023,5 44 0 0,0
24.06.2018 02:00:00 12,9 9,0 12,1 18,4 21,3 19,7 5 3 7 4 N 1023,9 34 0 0,0
24.06.2018 01:00:00 11,1 8,7 9,0 18,8 21,6 19,7 3 2 6 3 N 1024,3 32 0 0,0
24.06.2018 00:00:00 11,3 7,4 8,2 19,6 21,8 19,8 2 1 9 5 N 1024,6 44 0 0,0
23.06.2018 23:00:00 13,9 8,3 10,9 20,7 22,0 19,8 5 3 16 9 NNW 1024,6 46 0 0,0
23.06.2018 22:00:00 15,6 8,0 14,4 21,8 22,1 19,8 9 5 19 10 NW 1024,3 55 0 0,0
23.06.2018 21:00:00 16,7 7,7 16,7 23,0 22,2 19,8 10 5 24 13 NW 1024,1 59 45 0,0
23.06.2018 20:00:00 17,6 7,5 19,2 24,3 22,1 19,8 16 9 29 16 NNW 1024,0 36 60 0,0
23.06.2018 19:00:00 18,1 6,6 20,0 25,6 22,0 19,8 18 10 37 20 NW 1024,2 45 47 0,0
23.06.2018 18:00:00 18,8 7,2 23,2 26,5 21,7 19,8 21 11 38 21 NNW 1024,5 38 36 0,0
23.06.2018 17:00:00 19,0 7,8 23,0 27,3 21,4 19,8 19 10 34 18 NNW 1024,7 58 27 0,0
23.06.2018 16:00:00 20,5 7,2 27,5 27,5 20,9 19,8 18 10 36 19 NNW 1024,7 24 50 0,0
23.06.2018 15:00:00 19,8 5,4 27,9 27,4 20,5 19,8 19 10 29 15 NW 1025,0 27 59 0,0
23.06.2018 14:00:00 18,7 4,7 27,7 25,7 20,1 19,8 9 5 22 12 NNW 1025,5 21 58 0,0
23.06.2018 13:00:00 17,5 5,3 24,6 23,8 19,8 19,8 8 4 23 13 SSW 1026,1 30 60 0,0
23.06.2018 12:00:00 16,7 5,2 24,8 21,8 19,6 19,8 9 5 21 12 N 1026,4 18 59 0,0
23.06.2018 11:00:00 15,3 6,4 20,9 19,2 19,5 19,8 15 8 24 13 NW 1026,9 23 28 0,0
23.06.2018 10:00:00 13,8 6,9 16,7 18,2 19,5 19,8 11 6 21 11 NW 1027,2 28 31 0,0
23.06.2018 09:00:00 13,6 7,8 16,8 16,6 19,6 19,8 7 4 14 7 N 1027,3 18 39 0,0
23.06.2018 08:00:00 10,9 7,7 11,5 15,6 19,8 19,8 4 2 6 4 N 1027,2 18 20 0,0
23.06.2018 07:00:00 10,0 7,4 9,7 15,1 20,0 19,8 4 2 8 4 N 1027,2 23 27 0,0
23.06.2018 06:00:00 7,3 6,0 4,5 15,2 20,3 19,8 4 2 8 4 NNW 1027,1 28 0 0,0
23.06.2018 05:00:00 7,4 5,9 4,0 15,6 20,5 19,8 4 2 7 4 N 1026,9 30 0 0,0
23.06.2018 04:00:00 7,7 6,3 4,2 16,2 20,8 19,8 4 2 6 4 N 1026,7 35 0 0,0
23.06.2018 03:00:00 8,5 6,7 4,9 16,8 21,0 19,8 2 1 7 4 N 1026,6 38 0 0,0
23.06.2018 02:00:00 10,0 7,0 5,9 17,3 21,3 19,8 4 2 10 5 NW 1026,9 44 0 0,0
23.06.2018 01:00:00 10,9 7,0 6,9 18,0 21,5 19,8 5 3 11 6 NW 1026,8 60 0 0,0
23.06.2018 00:00:00 10,4 6,9 7,9 18,8 21,7 19,8 0 0 13 7 N 1027,0 45 0 0,0
22.06.2018 23:00:00 13,4 6,6 11,0 19,6 21,9 19,8 9 5 13 7 NW 1026,3 55 0 0,0
22.06.2018 22:00:00 14,3 6,1 12,0 20,7 22,0 19,8 7 4 21 11 NW 1025,9 65 15 0,0
22.06.2018 21:00:00 16,0 6,0 15,5 21,7 22,0 19,8 10 6 27 15 NNW 1025,6 70 29 0,0
22.06.2018 20:00:00 17,3 5,4 18,2 22,6 22,0 19,8 13 7 22 12 NNW 1025,4 69 0 0,0
22.06.2018 19:00:00 17,4 5,3 19,1 23,5 22,0 19,8 14 8 29 16 NW 1025,3 62 14 0,0
22.06.2018 18:00:00 17,6 5,1 20,2 24,2 21,8 19,8 18 10 32 17 NNW 1025,2 44 18 0,0
22.06.2018 17:00:00 18,5 5,3 23,5 24,5 21,6 19,8 17 9 34 18 NW 1025,0 55 29 0,0
22.06.2018 16:00:00 17,5 5,1 21,7 24,4 21,4 19,8 18 10 37 20 N 1025,0 30 34 0,0
22.06.2018 15:00:00 18,0 5,4 24,4 23,6 21,3 19,8 23 13 35 19 NW 1024,9 22 40 0,0
22.06.2018 14:00:00 16,7 5,5 21,6 22,0 21,2 19,8 18 10 32 18 NNW 1025,3 43 6 0,0
22.06.2018 13:00:00 16,5 5,1 20,8 22,2 21,0 19,8 22 12 41 22 NW 1025,3 30 34 0,0
22.06.2018 12:00:00 15,6 5,0 18,4 20,9 21,0 19,8 16 9 32 18 NW 1025,3 43 17 0,0
22.06.2018 11:00:00 15,5 5,1 19,1 19,9 21,0 19,8 18 10 32 17 NW 1025,1 33 11 0,0
22.06.2018 10:00:00 14,2 4,7 17,1 19,2 21,0 19,8 16 9 27 15 NW 1025,3 43 26 0,0
22.06.2018 09:00:00 13,1 5,1 15,6 18,3 21,1 19,8 13 7 27 14 NW 1025,2 35 51 0,0
22.06.2018 08:00:00 12,5 5,2 14,6 17,3 21,4 19,8 10 5 20 11 WNW 1025,0 40 60 0,0
22.06.2018 07:00:00 11,0 5,2 11,6 16,7 21,6 19,8 8 5 16 8 WNW 1025,2 42 60 0,0
22.06.2018 06:00:00 9,3 5,6 6,6 16,9 21,9 19,7 6 3 15 8 WNW 1025,3 47 7 0,0
22.06.2018 05:00:00 9,7 5,4 7,4 17,4 22,2 19,7 9 5 21 12 WNW 1024,9 45 0 0,0
22.06.2018 04:00:00 10,0 5,8 8,1 17,8 22,5 19,7 9 5 16 9 NW 1024,9 50 0 0,0
22.06.2018 03:00:00 10,4 5,7 8,5 18,4 22,8 19,7 9 5 15 8 NW 1024,5 53 0 0,0
22.06.2018 02:00:00 11,1 5,3 7,8 19,0 23,1 19,7 7 4 18 10 NW 1024,4 64 0 0,0
22.06.2018 01:00:00 12,5 4,7 10,6 19,7 23,5 19,7 10 5 20 11 NW 1024,1 58 0 0,0
22.06.2018 00:00:00 12,9 4,3 10,7 20,5 23,8 19,7 8 5 27 14 NW 1023,6 52 0 0,0
21.06.2018 23:00:00 14,5 3,3 13,0 21,4 24,1 19,7 16 9 32 17 NNW 1022,9 63 0 0,0
21.06.2018 22:00:00 15,8 3,0 14,5 22,6 24,3 19,7 18 10 40 21 NNW 1022,0 55 18 0,0
21.06.2018 21:00:00 17,8 3,6 17,1 23,9 24,5 19,7 19 10 44 24 NNW 1020,5 42 60 0,0
21.06.2018 20:00:00 19,6 3,0 20,5 25,3 24,6 19,7 26 14 48 26 N 1019,5 19 60 0,0
21.06.2018 19:00:00 21,0 2,1 23,5 26,4 24,6 19,7 27 15 44 24 NNW 1018,7 34 41 0,0
21.06.2018 18:00:00 21,9 6,2 24,4 27,4 24,5 19,7 26 14 40 21 NNW 1017,9 41 44 0,0
21.06.2018 17:00:00 23,0 8,5 25,7 28,0 24,4 19,7 23 12 41 22 NNW 1017,4 45 38 0,0
21.06.2018 16:00:00 23,7 12,4 27,5 27,2 24,4 19,7 18 10 40 21 NNW 1016,9 43 32 0,0
21.06.2018 15:00:00 21,9 14,1 24,8 26,6 24,3 19,6 12 6 41 22 NNW 1016,8 49 3 0,0
21.06.2018 14:00:00 21,5 13,6 23,9 27,5 24,1 19,6 28 15 45 24 N 1016,9 35 13 0,0
21.06.2018 13:00:00 25,6 13,1 29,3 27,5 23,9 19,6 21 11 35 19 NW 1015,8 56 16 0,0
21.06.2018 12:00:00 25,5 12,0 29,4 27,3 23,8 19,6 16 9 29 15 WSW 1015,7 42 57 0,0
21.06.2018 11:00:00 25,4 11,8 29,1 26,0 23,7 19,6 14 8 28 15 W 1015,6 27 58 0,0
21.06.2018 10:00:00 24,0 12,3 26,8 24,9 23,6 19,6 19 10 33 18 WNW 1015,7 28 60 0,0
21.06.2018 09:00:00 23,9 15,0 26,4 23,7 23,7 19,6 13 7 27 15 NW 1015,4 40 60 0,0
21.06.2018 08:00:00 22,5 16,0 24,0 22,8 23,8 19,6 4 2 7 4 SW 1015,5 27 58 0,0
21.06.2018 07:00:00 21,3 16,2 21,7 22,2 24,0 19,6 2 1 5 3 ENE 1015,4 25 51 0,0
21.06.2018 06:00:00 17,9 15,8 16,8 22,3 24,3 19,6 4 2 6 3 NE 1015,7 21 0 0,0
21.06.2018 05:00:00 17,1 16,0 17,2 22,5 24,5 19,6 4 2 8 5 WSW 1015,8 16 0 0,0
21.06.2018 04:00:00 17,6 15,7 14,9 23,0 24,8 19,6 3 2 8 5 ESE 1015,9 23 0 0,0
21.06.2018 03:00:00 17,7 15,4 15,7 23,7 25,0 19,6 0 0 9 5 N 1016,3 35 0 0,0
21.06.2018 02:00:00 19,4 16,3 16,6 24,3 25,3 19,6 5 3 12 6 NE 1016,4 33 0 0,0
21.06.2018 01:00:00 20,0 15,6 17,4 25,0 25,5 19,6 5 3 9 5 ESE 1016,7 44 0 0,0
21.06.2018 00:00:00 19,2 16,2 17,4 26,0 25,7 19,6 0 0 6 3 N 1017,0 35 0 0,0
20.06.2018 23:00:00 21,0 16,5 18,8 27,1 25,9 19,6 3 1 8 4 E 1017,2 42 0 0,0
20.06.2018 22:00:00 25,0 15,9 21,7 28,4 25,9 19,6 5 3 13 7 E 1017,0 69 18 0,0
20.06.2018 21:00:00 27,3 16,0 27,2 30,0 25,9 19,6 6 4 14 7 NNE 1016,9 70 60 0,0
20.06.2018 20:00:00 28,7 15,7 31,9 31,6 25,8 19,6 8 4 22 12 NE 1016,9 61 60 0,0
20.06.2018 19:00:00 29,7 14,7 33,3 32,8 25,5 19,6 5 3 18 10 WSW 1017,3 42 60 0,0
20.06.2018 18:00:00 29,8 15,3 36,4 33,9 25,1 19,6 8 4 22 12 E 1017,5 48 60 0,0
20.06.2018 17:00:00 30,5 14,8 37,7 34,1 24,6 19,6 5 3 17 9 SW 1018,1 37 60 0,0
20.06.2018 16:00:00 29,6 14,0 38,4 34,0 24,1 19,6 5 3 15 8 NNE 1018,7 31 60 0,0
20.06.2018 15:00:00 28,8 13,8 37,6 33,1 23,5 19,6 5 3 20 11 NW 1019,3 35 60 0,0
20.06.2018 14:00:00 28,6 15,9 37,8 31,7 23,0 19,6 5 3 16 8 SSW 1019,9 27 59 0,0
20.06.2018 13:00:00 27,3 15,3 35,0 29,8 22,5 19,6 9 5 16 9 W 1020,6 23 56 0,0
20.06.2018 12:00:00 26,1 15,0 33,5 28,1 22,2 19,6 5 3 16 9 SW 1021,2 24 60 0,0
20.06.2018 11:00:00 25,5 15,3 31,4 26,0 21,9 19,6 8 4 14 8 SSW 1021,5 24 60 0,0
20.06.2018 10:00:00 24,2 15,2 28,7 23,6 21,8 19,6 4 2 10 5 E 1021,9 47 60 0,0
20.06.2018 09:00:00 22,6 15,7 25,7 21,7 21,9 19,5 5 3 11 6 NE 1022,4 50 60 0,0
20.06.2018 08:00:00 20,3 15,0 22,1 20,2 22,0 19,5 6 4 10 5 N 1022,5 38 60 0,0
20.06.2018 07:00:00 17,8 15,0 18,3 19,5 22,2 19,5 7 4 8 4 N 1022,7 30 48 0,0
20.06.2018 06:00:00 14,4 13,8 12,7 19,6 22,4 19,5 3 2 7 4 WNW 1023,0 18 10 0,0
20.06.2018 05:00:00 14,3 13,6 11,9 20,1 22,6 19,5 6 3 8 5 N 1023,2 30 0 0,0
20.06.2018 04:00:00 14,8 14,0 13,2 20,6 22,8 19,5 0 0 9 5 N 1023,4 30 0 0,0
20.06.2018 03:00:00 17,1 14,9 15,7 21,1 23,1 19,5 6 4 14 7 N 1023,6 41 0 0,0
20.06.2018 02:00:00 17,7 15,2 15,3 21,5 23,3 19,5 6 3 10 5 NNE 1023,6 45 0 0,0
20.06.2018 01:00:00 16,0 14,8 14,0 22,1 23,5 19,5 4 2 6 4 NNE 1023,7 46 0 0,0
20.06.2018 00:00:00 16,8 15,0 14,9 22,9 23,7 19,5 2 1 5 3 ESE 1023,7 30 0 0,0
19.06.2018 23:00:00 18,9 15,4 16,1 23,8 23,8 19,5 3 2 9 5 NE 1023,5 52 0 0,0
19.06.2018 22:00:00 20,9 15,4 18,3 24,8 23,9 19,5 4 2 13 7 NNE 1023,2 70 19 0,0
19.06.2018 21:00:00 23,1 15,3 23,6 25,8 23,9 19,5 8 4 14 8 N 1023,1 70 46 0,0
19.06.2018 20:00:00 23,5 15,2 24,3 26,8 23,9 19,5 9 5 19 11 NNW 1023,3 70 1 0,0
19.06.2018 19:00:00 23,9 15,0 26,1 27,6 23,8 19,5 14 8 19 11 N 1023,4 70 0 0,0
19.06.2018 18:00:00 24,3 14,5 27,2 28,6 23,5 19,6 13 7 20 11 NNW 1023,5 70 10 0,0
19.06.2018 17:00:00 24,6 13,9 28,9 29,5 23,2 19,6 8 5 20 11 NW 1023,5 40 46 0,0
19.06.2018 16:00:00 24,4 14,2 30,5 28,7 23,0 19,6 11 6 25 14 NW 1023,7 38 36 0,0
19.06.2018 15:00:00 23,8 14,5 28,6 28,1 22,6 19,6 14 7 24 13 WNW 1024,1 45 24 0,0
19.06.2018 14:00:00 23,7 14,9 28,6 27,6 22,3 19,6 11 6 27 15 N 1024,1 29 14 0,0
19.06.2018 13:00:00 24,0 13,9 30,7 27,3 22,0 19,6 7 4 21 11 NW 1024,0 49 33 0,0
19.06.2018 12:00:00 23,2 13,4 28,1 25,8 21,8 19,6 9 5 22 12 W 1024,1 39 47 0,0
19.06.2018 11:00:00 22,4 13,5 26,9 24,2 21,6 19,5 8 5 21 11 SW 1024,2 65 40 0,0
19.06.2018 10:00:00 21,9 14,5 26,0 23,7 21,5 19,5 11 6 23 13 WSW 1024,3 43 43 0,0
19.06.2018 09:00:00 20,8 14,3 24,4 22,4 21,5 19,5 10 5 19 10 SW 1024,5 33 60 0,0
19.06.2018 08:00:00 18,4 14,7 20,6 20,5 21,6 19,5 11 6 16 9 S 1024,4 26 60 0,0
19.06.2018 07:00:00 17,0 14,5 17,9 19,8 21,8 19,5 9 5 15 8 SSE 1023,9 31 43 0,0
19.06.2018 06:00:00 16,4 14,4 16,4 19,9 21,9 19,5 11 6 17 9 S 1023,8 29 0 0,0
19.06.2018 05:00:00 16,8 14,5 17,0 20,2 22,1 19,5 8 5 14 7 S 1023,5 32 0 0,0
19.06.2018 04:00:00 17,3 14,6 17,0 20,5 22,2 19,5 8 4 12 7 SSE 1023,3 33 0 0,0
19.06.2018 03:00:00 17,6 14,5 17,0 20,8 22,3 19,5 5 3 12 6 S 1023,2 38 0 0,0
19.06.2018 02:00:00 18,1 14,5 18,0 21,2 22,5 19,6 7 4 14 7 S 1023,1 42 0 0,0
19.06.2018 01:00:00 18,9 14,8 18,3 21,5 22,6 19,6 5 3 11 6 SSW 1022,7 67 0 0,0
19.06.2018 00:00:00 19,2 14,2 18,7 21,8 22,8 19,6 8 5 10 5 S 1022,9 49 0 0,0
18.06.2018 23:00:00 19,7 13,5 18,5 22,1 22,9 19,6 7 4 11 6 SW 1022,6 55 0 0,0
18.06.2018 22:00:00 19,4 13,4 18,0 22,9 23,0 19,6 8 5 11 6 SSW 1022,2 35 0 0,0
18.06.2018 21:00:00 21,3 13,2 21,1 24,0 23,1 19,6 8 4 16 8 SW 1021,8 53 4 0,0
18.06.2018 20:00:00 22,2 12,3 23,2 24,8 23,1 19,6 9 5 17 9 SW 1021,8 63 0 0,0
18.06.2018 19:00:00 22,4 11,7 23,6 25,6 23,0 19,6 8 5 17 9 W 1021,9 67 0 0,0
18.06.2018 18:00:00 22,6 11,7 25,1 26,8 22,9 19,6 11 6 29 16 WSW 1022,0 50 21 0,0
18.06.2018 17:00:00 23,0 10,7 26,6 26,6 22,7 19,6 12 6 21 12 WSW 1022,1 49 4 0,0
18.06.2018 16:00:00 22,8 11,5 26,8 26,9 22,5 19,6 16 9 23 12 WSW 1022,3 41 1 0,0

tt = temperature
td = dewpoint
tt 5cm = temperature 5cm
tt -5cm = temperature -5cm
tt -20cm = temperature -20cm
tt -100cm = temperature -100cm
ff = wind speed
fx = gusts
dd = wind direction
ppp = reduced air pressure
vv = visibility
sd = sunshine duration
rr = precipitation

Next stations